This is the latest recevied weather packets stored in our database for station/object KD7JB. If no packets are shown the sender has not sent any weather packets the latest 10 day(s).
| Time | Temp. | Humidity | Pressure | Rain* | Wind** | Luminosity | Snow |
|---|---|---|---|---|---|---|---|
| 1777868403 | 17.22° C | 44% | 1173.5 hPa | 0 mm | - | 0 W/m² | - |
| 1777868099 | 17.22° C | 44% | 1173.5 hPa | 0 mm | - | 0 W/m² | - |
| 1777867794 | 17.22° C | 44% | 1173.6 hPa | 0 mm | - | 0 W/m² | - |
| 1777867493 | 17.22° C | 44% | 1173.5 hPa | 0 mm | - | 0 W/m² | - |
| 1777867188 | 17.78° C | 43% | 1173.6 hPa | 0 mm | - | 0 W/m² | - |
| 1777866886 | 17.22° C | 43% | 1173.5 hPa | 0 mm | - | 0 W/m² | - |
| 1777866582 | 17.22° C | 43% | 1173.4 hPa | 0 mm | - | 0 W/m² | - |
| 1777866280 | 17.22° C | 44% | 1173.3 hPa | 0 mm | - | 0 W/m² | - |
| 1777865977 | 17.22° C | 44% | 1173.4 hPa | 0 mm | - | 0 W/m² | - |
| 1777865674 | 17.22° C | 44% | 1173 hPa | 0 mm | - | 0 W/m² | - |
| 1777865372 | 17.22° C | 44% | 1173.3 hPa | 0 mm | - | 1 W/m² | - |
| 1777865069 | 16.67° C | 46% | 1173.4 hPa | 0 mm | - | 1 W/m² | - |
| 1777864765 | 17.22° C | 46% | 1173 hPa | 0 mm | - | 2 W/m² | - |
| 1777864462 | 17.22° C | 45% | 1173 hPa | 0 mm | - | 4 W/m² | - |
| 1777864159 | 17.78° C | 45% | 1173.3 hPa | 0 mm | - | 6 W/m² | - |
| 1777863856 | 18.33° C | 44% | 1173.3 hPa | 0 mm | - | 8 W/m² | - |
| 1777863552 | 18.33° C | 43% | 1173.3 hPa | 0 mm | - | 11 W/m² | - |
| 1777863249 | 18.89° C | 42% | 1173.1 hPa | 0 mm | - | 13 W/m² | - |
| 1777862946 | 19.44° C | 40% | 1173.1 hPa | 0 mm | - | 16 W/m² | - |
| 1777862643 | 20.56° C | 40% | 1173.1 hPa | 0 mm | - | 19 W/m² | - |
| 1777862340 | 20.56° C | 39% | 1173 hPa | 0 mm | - | 22 W/m² | - |
| 1777862036 | 20° C | 38% | 1173.3 hPa | 0 mm | - | 25 W/m² | - |
| 1777861731 | 20° C | 39% | 1173 hPa | 0 mm | - | 28 W/m² | - |
| 1777861428 | 20.56° C | 38% | 1173.1 hPa | 0 mm | - | 31 W/m² | - |
| 1777861126 | 20.56° C | 39% | 1173.1 hPa | 0 mm | - | 36 W/m² | - |
* Rain latest hour (hover to see other rain measurements)
** Current wind speed in m/s (hover to see current wind gust speed)